Hourly Data Report for October 03, 2015

All times are specified in Local Standard Time (LST). Add 1 hour to adjust for Daylight Saving Time where and when it is observed.

QIKIQTARJUAQ A
NUNAVUT

67°32'48.000" N
64°01'54.000" W
5.50 m
2400577
YVM

Download Data

Hourly Data (October 2015)
Hourly Data Report for October 3, 2015
Temp Definition
°C
Dew Point Temp Definition
°C
Rel Hum Definition
%
Wind Dir Definition
10's deg

Wind Spd Definition
km/h
Visibility Definition
km
Stn Press Definition
kPa
Hmdx Definition


Wind Chill Definition


Weather Definition


TIME
00:00 Legend Double Dagger 0.4 -9.0 50 17 5 16.1 102.33     LegendNANA
01:00 Legend Double Dagger 1.6 -7.5 51 27 15 16.1 102.32     LegendNANA
02:00 Legend Double Dagger 0.4 -7.7 55 24 8 16.1 102.37     LegendNANA
03:00 Legend Double Dagger -1.1 -8.4 58 23 5 16.1 102.38   -3 LegendNANA
04:00 Legend Double Dagger -0.5 -10.0 49 LegendMM 4 16.1 102.43   -2 LegendNANA
05:00 Legend Double Dagger -0.7 -7.0 63 23 11 16.1 102.44   -4 LegendNANA
06:00 Legend Double Dagger 0.1 -7.2 58 LegendMM 5 16.1 102.50     LegendNANA
07:00 Legend Double Dagger 0.5 -4.9 67 29 8 16.1 102.50     LegendNANA
08:00 Legend Double Dagger 1.3 -4.5 65 LegendMM 8 16.1 102.52     LegendNANA
09:00 Legend Double Dagger 1.1 -3.5 71 13 24 16.1 102.50     LegendNANA
10:00 Legend Double Dagger 1.3 -3.6 70 14 13 16.1 102.50     LegendNANA
11:00 Legend Double Dagger 1.2 -3.4 71 13 22 16.1 102.44     LegendNANA
12:00 Legend Double Dagger 0.9 -3.6 72 13 22 16.1 102.42     LegendNANA
13:00 Legend Double Dagger 1.0 -3.3 73 13 21 16.1 102.37     LegendNANA
14:00 Legend Double Dagger 0.8 -3.6 72 12 22 16.1 102.34     LegendNANA
15:00 Legend Double Dagger 0.6 -4.0 72 14 22 16.1 102.29     LegendNANA
16:00 Legend Double Dagger 0.5 -4.4 70 13 18 16.1 102.23     LegendNANA
17:00 Legend Double Dagger 0.4 -4.6 69 13 13 16.1 102.15     LegendNANA
18:00 Legend Double Dagger -0.1 -3.5 78 10 15 9.7 102.07   -5 Snow
19:00 Legend Double Dagger -0.5 -2.6 86 12 9 6.4 102.01   -4 Snow
20:00 Legend Double Dagger -1.1 -2.2 92   0 2.0 101.91     Snow
21:00 Legend Double Dagger -1.3 -1.7 97 35 5 1.6 101.78   -3 Snow
22:00 Legend Double Dagger -1.5 -2.1 96   0 2.0 101.70     Snow
23:00 Legend Double Dagger -1.6 -2.0 97 2 5 1.6 101.59   -3 Snow

Notes on Data Quality.

Legend

  • E = Estimated
  • M = Missing
  • NA = Not Available
  • ‡ = Partner data that is not subject to review by the National Climate Archives
Date modified: